Thunderstorms From: 26-05-2018 09:00 Until: 27-05-2018 05:00 warning for: Thunderstorms Level: Yellow info button

Although rather usual in this region, locally or potentially dangerous phenomena are expected. (such as local winds, summer thunderstorms, rising streams or high waves) Be aware and pay attention to the latest weather updates, especially if you carry out activities exposed to weather or close to a stream or shoreline. 


Meteo18 Weather Cam more information Meteo18 Weather Cam


warning for Thunderstorms more information blitzortung!


Rain radar more information rain snow radar


Visit our other weather sites:

Template documentation
and downloads

And another site



Weather Underground History page Text

Daily Summary for July 1, 2017 Units:  English    Metric   Both
« Previous Day
Next Day »
Daily Weekly Monthly Yearly Custom
  High: Low: Average:
Temperature: TemperatureC °F 12.7 °F 14.1 °F
Dew Point: DewpointC °F 11.7 °F 13.1 °F
Humidity: Humidity % 91 % 94 %
Wind Speed: WindSpeedKMH mph 0.0 mph 7.1 mph
Wind Gust: WindSpeedGustKMH mph - -
Wind:- - West
Pressure: PressurehPa in 1013.1 in -
Precipitation: 9.9 in    
Historical Graphs
 
 
Tabular Data for July 1, 2017
Time Temperature Dew Point Pressure Wind Wind Speed Wind Gust Humidity Rainfall Rate (Hourly)
TemperatureC °F DewpointC °F PressurehPa in Calm     Humidity % HourlyPrecipMM in
00:02 13.1 °F 11.7 °F 1013.1 in SSW 4.8 mph 17.7 mph 91 % 0.0 in
00:12 13.1 °F 11.7 °F 1013.1 in SW 11.3 mph 16.1 mph 91 % 0.0 in
00:22 13.1 °F 11.8 °F 1013.1 in SW 8.0 mph 19.3 mph 92 % 0.0 in
00:32 13.1 °F 11.8 °F 1013.1 in WSW 4.8 mph 16.1 mph 92 % 0.0 in
00:42 13.1 °F 11.8 °F 1013.1 in WSW 6.4 mph 16.1 mph 92 % 0.0 in
00:47 13.1 °F 11.8 °F 1013.4 in WSW 4.8 mph 20.9 mph 92 % 0.0 in
00:52 13.1 °F 11.8 °F 1013.4 in WSW 12.9 mph 20.9 mph 92 % 0.0 in
00:57 13.2 °F 11.9 °F 1013.4 in WSW 8.0 mph 20.9 mph 92 % 0.0 in
01:02 13.2 °F 11.9 °F 1013.4 in SW 11.3 mph 17.7 mph 92 % 0.0 in
01:12 13.2 °F 12.1 °F 1013.4 in WSW 8.0 mph 17.7 mph 93 % 0.0 in
01:17 13.2 °F 12.1 °F 1013.4 in SW 12.9 mph 17.7 mph 93 % 0.0 in
01:22 13.2 °F 12.1 °F 1013.8 in WSW 6.4 mph 17.7 mph 93 % 0.0 in
01:32 13.2 °F 12.1 °F 1013.4 in SW 11.3 mph 17.7 mph 93 % 0.0 in
01:42 13.2 °F 12.1 °F 1013.8 in WSW 12.9 mph 17.7 mph 93 % 0.0 in
01:47 13.2 °F 12.1 °F 1013.8 in SW 20.9 mph 20.9 mph 93 % 0.0 in
01:52 13.2 °F 12.1 °F 1013.8 in SW 9.7 mph 17.7 mph 93 % 0.0 in
02:02 13.2 °F 12.1 °F 1013.8 in WSW 4.8 mph 20.9 mph 93 % 0.0 in
02:12 13.1 °F 12.0 °F 1013.8 in SW 9.7 mph 16.1 mph 93 % 0.0 in
02:17 13.1 °F 12.2 °F 1013.8 in SW 6.4 mph 19.3 mph 94 % 0.0 in
02:22 13.1 °F 12.2 °F 1013.8 in SW 11.3 mph 19.3 mph 94 % 0.0 in
02:32 13.0 °F 12.1 °F 1013.8 in WSW 8.0 mph 14.5 mph 94 % 0.0 in
02:42 12.9 °F 12.0 °F 1013.8 in SW 9.7 mph 19.3 mph 94 % 0.3 in
02:47 12.9 °F 12.1 °F 1013.8 in WSW 11.3 mph 19.3 mph 95 % 0.3 in
02:52 12.8 °F 12.0 °F 1013.8 in West 9.7 mph 19.3 mph 95 % 0.3 in
03:02 12.8 °F 12.0 °F 1013.8 in West 4.8 mph 17.7 mph 95 % 0.5 in
03:07 12.8 °F 12.0 °F 1014.1 in WSW 6.4 mph 22.5 mph 95 % 0.5 in
03:12 12.7 °F 11.9 °F 1014.1 in WSW 20.9 mph 22.5 mph 95 % 0.5 in
03:17 12.7 °F 11.9 °F 1014.1 in SW 3.2 mph 20.9 mph 95 % 0.5 in
03:22 12.7 °F 11.9 °F 1014.1 in SSW 12.9 mph 20.9 mph 95 % 0.5 in
03:27 12.7 °F 11.9 °F 1014.1 in SW 4.8 mph 20.9 mph 95 % 0.3 in
03:32 12.7 °F 11.9 °F 1014.1 in SW 8.0 mph 19.3 mph 95 % 0.3 in
03:37 12.7 °F 11.9 °F 1014.1 in SW 4.8 mph 19.3 mph 95 % 0.3 in
03:42 12.7 °F 11.9 °F 1014.1 in South 3.2 mph 17.7 mph 95 % 0.3 in
03:47 12.7 °F 11.9 °F 1014.1 in West 3.2 mph 16.1 mph 95 % 0.0 in
03:52 12.7 °F 11.9 °F 1014.1 in West 8.0 mph 19.3 mph 95 % 0.0 in
03:57 12.7 °F 11.9 °F 1014.1 in West 8.0 mph 19.3 mph 95 % 0.0 in
04:02 12.7 °F 11.9 °F 1014.1 in SW 12.9 mph 19.3 mph 95 % 0.0 in
04:12 12.7 °F 11.9 °F 1014.1 in SW 14.5 mph 19.3 mph 95 % 0.3 in
04:22 12.7 °F 11.9 °F 1014.1 in WSW 9.7 mph 22.5 mph 95 % 0.3 in
04:27 12.7 °F 11.9 °F 1014.4 in WSW 6.4 mph 22.5 mph 95 % 0.3 in
04:32 12.7 °F 11.9 °F 1014.4 in WSW 11.3 mph 19.3 mph 95 % 0.3 in
04:37 12.7 °F 11.9 °F 1014.4 in SW 14.5 mph 19.3 mph 95 % 0.3 in
04:42 12.7 °F 11.9 °F 1014.4 in WSW 11.3 mph 19.3 mph 95 % 0.3 in
04:47 12.7 °F 11.9 °F 1014.4 in SW 8.0 mph 20.9 mph 95 % 0.3 in
04:52 12.7 °F 11.9 °F 1014.4 in WSW 4.8 mph 20.9 mph 95 % 0.3 in
04:57 12.7 °F 11.9 °F 1014.4 in SW 8.0 mph 20.9 mph 95 % 0.5 in
05:02 12.7 °F 11.9 °F 1014.4 in SW 9.7 mph 20.9 mph 95 % 0.5 in
05:07 12.7 °F 11.9 °F 1014.4 in SW 8.0 mph 17.7 mph 95 % 0.3 in
05:12 12.7 °F 11.9 °F 1014.4 in SW 4.8 mph 17.7 mph 95 % 0.3 in
05:17 12.7 °F 11.9 °F 1014.4 in SW 4.8 mph 16.1 mph 95 % 0.5 in
05:27 12.7 °F 12.1 °F 1014.4 in SSW 3.2 mph 16.1 mph 96 % 0.5 in
05:32 12.7 °F 12.1 °F 1014.8 in WSW 3.2 mph 16.1 mph 96 % 0.5 in
05:37 12.8 °F 12.2 °F 1014.8 in West 3.2 mph 12.9 mph 96 % 1.0 in
05:42 12.8 °F 12.2 °F 1014.8 in North 1.6 mph 12.9 mph 96 % 1.0 in
05:47 12.8 °F 12.2 °F 1014.8 in WSW 4.8 mph 14.5 mph 96 % 1.3 in
05:52 12.8 °F 12.2 °F 1014.8 in SW 8.0 mph 14.5 mph 96 % 1.0 in
05:57 12.8 °F 12.2 °F 1014.8 in West 11.3 mph 14.5 mph 96 % 1.0 in
06:02 12.9 °F 12.3 °F 1014.8 in West 8.0 mph 14.5 mph 96 % 1.0 in
06:07 12.9 °F 12.3 °F 1014.8 in WSW 4.8 mph 14.5 mph 96 % 1.0 in
06:12 12.9 °F 12.3 °F 1014.8 in West 8.0 mph 14.5 mph 96 % 1.0 in
06:17 12.9 °F 12.3 °F 1015.1 in WSW 4.8 mph 14.5 mph 96 % 0.8 in
06:22 12.9 °F 12.3 °F 1015.1 in West 8.0 mph 12.9 mph 96 % 0.8 in
06:27 12.9 °F 12.3 °F 1015.1 in WSW 11.3 mph 12.9 mph 96 % 0.8 in
06:32 12.9 °F 12.3 °F 1015.1 in West 6.4 mph 14.5 mph 96 % 0.5 in
06:37 13.0 °F 12.4 °F 1015.1 in West 6.4 mph 14.5 mph 96 % 0.5 in
06:42 13.0 °F 12.4 °F 1015.1 in WSW 4.8 mph 12.9 mph 96 % 0.0 in
06:47 13.0 °F 12.4 °F 1015.5 in West 4.8 mph 12.9 mph 96 % 0.0 in
06:52 13.1 °F 12.5 °F 1015.5 in West 6.4 mph 12.9 mph 96 % 0.0 in
06:57 13.1 °F 12.5 °F 1015.5 in West 4.8 mph 12.9 mph 96 % 0.0 in
07:02 13.1 °F 12.5 °F 1015.5 in WSW 6.4 mph 12.9 mph 96 % 0.0 in
07:07 13.1 °F 12.5 °F 1015.5 in WSW 6.4 mph 11.3 mph 96 % 0.0 in
07:12 13.1 °F 12.5 °F 1015.5 in West 3.2 mph 11.3 mph 96 % 0.0 in
07:17 13.2 °F 12.6 °F 1015.5 in West 8.0 mph 11.3 mph 96 % 0.0 in
07:22 13.2 °F 12.6 °F 1015.8 in WSW 3.2 mph 11.3 mph 96 % 0.0 in
07:27 13.2 °F 12.6 °F 1015.8 in West 3.2 mph 11.3 mph 96 % 0.0 in
07:32 13.2 °F 12.6 °F 1015.8 in West 4.8 mph 11.3 mph 96 % 0.0 in
07:37 13.2 °F 12.6 °F 1015.8 in WSW 4.8 mph 12.9 mph 96 % 0.3 in
07:42 13.3 °F 12.7 °F 1015.8 in WNW 4.8 mph 12.9 mph 96 % 0.3 in
07:47 13.3 °F 12.7 °F 1015.8 in West 3.2 mph 12.9 mph 96 % 0.3 in
07:52 13.3 °F 12.7 °F 1015.8 in WSW 6.4 mph 12.9 mph 96 % 0.3 in
07:57 13.3 °F 12.7 °F 1016.1 in West 4.8 mph 9.7 mph 96 % 0.3 in
08:02 13.3 °F 12.7 °F 1016.1 in West 4.8 mph 9.7 mph 96 % 0.3 in
08:12 13.4 °F 12.6 °F 1016.1 in WSW 4.8 mph 11.3 mph 95 % 0.3 in
08:17 13.4 °F 12.6 °F 1016.1 in WSW 6.4 mph 11.3 mph 95 % 0.3 in
08:22 13.5 °F 12.7 °F 1016.1 in WNW 4.8 mph 11.3 mph 95 % 0.3 in
08:27 13.6 °F 12.8 °F 1016.1 in West 6.4 mph 11.3 mph 95 % 0.3 in
08:32 13.7 °F 12.8 °F 1016.1 in West 3.2 mph 11.3 mph 94 % 0.3 in
08:37 13.7 °F 12.8 °F 1016.5 in WSW 9.7 mph 12.9 mph 94 % 0.0 in
08:42 13.7 °F 12.8 °F 1016.5 in WNW 8.0 mph 12.9 mph 94 % 0.0 in
08:47 13.7 °F 12.8 °F 1016.5 in WNW 11.3 mph 12.9 mph 94 % 0.0 in
08:57 13.7 °F 12.6 °F 1016.5 in WNW 8.0 mph 16.1 mph 93 % 0.0 in
09:02 13.7 °F 12.6 °F 1016.5 in WSW 1.6 mph 16.1 mph 93 % 0.0 in
09:12 13.6 °F 12.5 °F 1016.8 in WNW 6.4 mph 12.9 mph 93 % 0.0 in
09:17 13.6 °F 12.5 °F 1016.8 in West 6.4 mph 17.7 mph 93 % 0.0 in
09:22 13.6 °F 12.5 °F 1016.8 in West 12.9 mph 17.7 mph 93 % 0.0 in
09:27 13.6 °F 12.5 °F 1016.8 in West 12.9 mph 19.3 mph 93 % 0.0 in
09:32 13.6 °F 12.5 °F 1016.8 in WNW 11.3 mph 19.3 mph 93 % 0.0 in
09:37 13.6 °F 12.5 °F 1016.8 in West 8.0 mph 19.3 mph 93 % 0.0 in
09:42 13.6 °F 12.5 °F 1017.2 in WSW 6.4 mph 19.3 mph 93 % 0.0 in
09:47 13.6 °F 12.5 °F 1017.2 in West 4.8 mph 16.1 mph 93 % 0.0 in
09:52 13.6 °F 12.7 °F 1017.2 in West 1.6 mph 16.1 mph 94 % 0.0 in
09:57 13.6 °F 12.5 °F 1017.2 in West 9.7 mph 16.1 mph 93 % 0.0 in
10:02 13.6 °F 12.7 °F 1017.2 in WNW 9.7 mph 16.1 mph 94 % 0.0 in
10:07 13.6 °F 12.5 °F 1017.2 in WSW 14.5 mph 17.7 mph 93 % 0.0 in
10:12 13.6 °F 12.5 °F 1017.5 in West 16.1 mph 17.7 mph 93 % 0.0 in
10:17 13.7 °F 12.8 °F 1017.5 in WNW 12.9 mph 20.9 mph 94 % 0.0 in
10:22 13.7 °F 12.8 °F 1017.5 in SW 1.6 mph 20.9 mph 94 % 0.0 in
10:27 13.8 °F 12.9 °F 1017.5 in WNW 4.8 mph 20.9 mph 94 % 0.0 in
10:32 13.8 °F 12.9 °F 1017.5 in West 3.2 mph 17.7 mph 94 % 0.0 in
10:42 13.8 °F 12.9 °F 1017.8 in WNW 6.4 mph 17.7 mph 94 % 0.0 in
10:47 13.9 °F 12.9 °F 1017.8 in WSW 3.2 mph 17.7 mph 94 % 0.0 in
10:57 13.9 °F 12.8 °F 1017.8 in West 8.0 mph 14.5 mph 93 % 0.0 in
11:02 13.9 °F 12.8 °F 1017.8 in West 6.4 mph 14.5 mph 93 % 0.0 in
11:12 14.0 °F 12.9 °F 1017.8 in West 11.3 mph 20.9 mph 93 % 0.0 in
11:17 14.1 °F 13.0 °F 1018.2 in WNW 9.7 mph 20.9 mph 93 % 0.0 in
11:22 14.1 °F 13.0 °F 1018.2 in SSW 8.0 mph 19.3 mph 93 % 0.0 in
11:27 14.2 °F 13.1 °F 1018.2 in WSW 9.7 mph 19.3 mph 93 % 0.0 in
11:32 14.2 °F 13.1 °F 1018.2 in WNW 11.3 mph 19.3 mph 93 % 0.0 in
11:37 14.2 °F 13.1 °F 1018.2 in WSW 9.7 mph 22.5 mph 93 % 0.0 in
11:42 14.1 °F 13.0 °F 1018.2 in WSW 9.7 mph 22.5 mph 93 % 0.0 in
11:52 14.2 °F 13.2 °F 1018.2 in WSW 8.0 mph 24.1 mph 94 % 0.0 in
11:57 14.2 °F 13.2 °F 1018.5 in WSW 19.3 mph 19.3 mph 94 % 0.0 in
12:02 14.2 °F 13.1 °F 1018.5 in West 9.7 mph 20.9 mph 93 % 0.0 in
12:12 14.2 °F 13.1 °F 1018.5 in West 16.1 mph 20.9 mph 93 % 0.3 in
12:17 14.2 °F 13.1 °F 1018.5 in West 9.7 mph 20.9 mph 93 % 0.3 in
12:22 14.3 °F 13.2 °F 1018.8 in West 8.0 mph 20.9 mph 93 % 0.3 in
12:32 14.4 °F 13.3 °F 1018.8 in WNW 6.4 mph 17.7 mph 93 % 0.3 in
12:42 14.6 °F 13.5 °F 1018.8 in West 4.8 mph 17.7 mph 93 % 0.5 in
12:52 14.8 °F 13.5 °F 1018.8 in West 8.0 mph 20.9 mph 92 % 0.5 in
12:57 14.8 °F 13.5 °F 1018.8 in West 9.7 mph 20.9 mph 92 % 0.5 in
13:02 14.8 °F 13.5 °F 1019.2 in WSW 8.0 mph 16.1 mph 92 % 0.5 in
13:07 14.8 °F 13.5 °F 1019.2 in NW 11.3 mph 16.1 mph 92 % 0.8 in
13:12 14.8 °F 13.7 °F 1019.2 in WNW 6.4 mph 16.1 mph 93 % 0.8 in
13:17 14.8 °F 13.7 °F 1019.2 in WSW 6.4 mph 16.1 mph 93 % 0.8 in
13:22 14.9 °F 13.6 °F 1019.2 in West 16.1 mph 16.1 mph 92 % 0.8 in
13:27 14.9 °F 13.6 °F 1019.2 in WSW 8.0 mph 17.7 mph 92 % 1.0 in
13:32 15.1 °F 14.0 °F 1019.2 in WSW 9.7 mph 17.7 mph 93 % 1.0 in
13:37 15.1 °F 13.8 °F 1019.2 in West 9.7 mph 19.3 mph 92 % 0.8 in
13:42 15.1 °F 13.8 °F 1019.2 in West 8.0 mph 19.3 mph 92 % 0.8 in
13:52 15.1 °F 13.8 °F 1019.2 in West 6.4 mph 19.3 mph 92 % 0.8 in
13:57 15.3 °F 14.0 °F 1019.2 in SW 4.8 mph 22.5 mph 92 % 0.5 in
14:02 15.3 °F 13.8 °F 1019.2 in West 11.3 mph 22.5 mph 91 % 0.5 in
14:12 15.3 °F 14.0 °F 1018.8 in WSW 16.1 mph 19.3 mph 92 % 0.3 in
14:17 15.4 °F 14.1 °F 1018.8 in SW 9.7 mph 17.7 mph 92 % 0.3 in
14:22 15.4 °F 14.1 °F 1019.2 in SW 9.7 mph 17.7 mph 92 % 0.0 in
14:32 15.4 °F 14.1 °F 1019.2 in SW 9.7 mph 24.1 mph 92 % 0.0 in
14:42 15.5 °F 14.2 °F 1019.2 in WSW 9.7 mph 24.1 mph 92 % 0.3 in
14:47 15.5 °F 14.4 °F 1019.2 in West 3.2 mph 19.3 mph 93 % 0.3 in
14:52 15.5 °F 14.4 °F 1019.2 in WSW 9.7 mph 14.5 mph 93 % 0.5 in
14:57 15.6 °F 14.5 °F 1019.2 in SSW 6.4 mph 17.7 mph 93 % 0.5 in
15:02 15.6 °F 14.3 °F 1019.2 in SW 6.4 mph 17.7 mph 92 % 0.5 in
15:12 15.9 °F 14.8 °F 1019.2 in WSW 4.8 mph 14.5 mph 93 % 0.5 in
15:22 15.9 °F 14.6 °F 1019.2 in SW 17.7 mph 17.7 mph 92 % 0.5 in
15:27 15.9 °F 14.6 °F 1019.2 in SW 14.5 mph 20.9 mph 92 % 0.5 in
15:32 16.1 °F 14.8 °F 1019.2 in SW 6.4 mph 20.9 mph 92 % 0.5 in
15:37 16.1 °F 15.0 °F 1019.2 in WSW 12.9 mph 20.9 mph 93 % 0.5 in
15:42 16.0 °F 14.7 °F 1019.2 in WSW 6.4 mph 17.7 mph 92 % 0.5 in
15:52 16.1 °F 15.0 °F 1019.2 in West 4.8 mph 19.3 mph 93 % 0.5 in
16:02 16.1 °F 14.8 °F 1019.2 in WSW 16.1 mph 17.7 mph 92 % 0.5 in
16:12 16.2 °F 14.9 °F 1019.2 in SW 8.0 mph 16.1 mph 92 % 0.5 in
16:17 16.2 °F 14.9 °F 1019.2 in WSW 17.7 mph 17.7 mph 92 % 0.5 in
16:22 16.0 °F 14.9 °F 1019.2 in SW 8.0 mph 20.9 mph 93 % 0.5 in
16:27 15.8 °F 14.5 °F 1019.5 in WSW 14.5 mph 25.7 mph 92 % 1.0 in
16:32 15.5 °F 14.4 °F 1019.2 in West 8.0 mph 25.7 mph 93 % 1.8 in
16:37 15.3 °F 14.2 °F 1019.5 in WSW 24.1 mph 25.7 mph 93 % 2.0 in
16:42 15.2 °F 14.2 °F 1019.5 in WSW 14.5 mph 29.0 mph 94 % 2.3 in
16:47 15.2 °F 14.2 °F 1019.5 in West 12.9 mph 29.0 mph 94 % 2.3 in
16:52 15.1 °F 14.0 °F 1019.5 in West 8.0 mph 29.0 mph 93 % 2.3 in
16:57 15.1 °F 14.0 °F 1019.5 in West 9.7 mph 20.9 mph 93 % 2.3 in
17:02 15.2 °F 14.1 °F 1019.5 in SW 9.7 mph 19.3 mph 93 % 2.3 in
17:12 15.3 °F 14.2 °F 1019.5 in WNW 6.4 mph 22.5 mph 93 % 2.3 in
17:17 15.3 °F 14.3 °F 1019.5 in SW 9.7 mph 22.5 mph 94 % 2.0 in
17:22 15.4 °F 14.4 °F 1019.5 in WSW 4.8 mph 19.3 mph 94 % 1.8 in
17:27 15.4 °F 14.4 °F 1019.5 in West 9.7 mph 24.1 mph 94 % 1.5 in
17:32 15.4 °F 14.4 °F 1019.9 in WSW 11.3 mph 24.1 mph 94 % 1.3 in
17:42 15.4 °F 14.4 °F 1019.9 in WNW 8.0 mph 24.1 mph 94 % 1.3 in
17:47 15.4 °F 14.4 °F 1019.9 in WSW 6.4 mph 20.9 mph 94 % 1.3 in
17:52 15.4 °F 14.4 °F 1019.9 in WNW 8.0 mph 14.5 mph 94 % 1.3 in
17:57 15.4 °F 14.4 °F 1019.9 in WNW 3.2 mph 14.5 mph 94 % 1.5 in
18:02 15.3 °F 14.5 °F 1019.9 in NW 6.4 mph 12.9 mph 95 % 2.3 in
18:07 15.2 °F 14.4 °F 1019.9 in WSW 1.6 mph 16.1 mph 95 % 2.8 in
18:12 15.2 °F 14.4 °F 1019.9 in WNW 19.3 mph 19.3 mph 95 % 3.0 in
18:17 15.2 °F 14.4 °F 1019.9 in WNW 14.5 mph 16.1 mph 95 % 3.0 in
18:22 15.1 °F 14.3 °F 1019.9 in West 3.2 mph 22.5 mph 95 % 3.3 in
18:32 15.1 °F 14.3 °F 1019.9 in NW 4.8 mph 17.7 mph 95 % 3.0 in
18:37 15.0 °F 14.2 °F 1019.9 in WNW 8.0 mph 19.3 mph 95 % 2.8 in
18:42 15.1 °F 14.3 °F 1020.2 in NW 3.2 mph 19.3 mph 95 % 2.3 in
18:52 15.1 °F 14.3 °F 1020.2 in WNW 6.4 mph 11.3 mph 95 % 2.3 in
18:57 15.1 °F 14.3 °F 1020.2 in WNW 1.6 mph 16.1 mph 95 % 1.5 in
19:02 15.1 °F 14.1 °F 1020.2 in WNW 4.8 mph 16.1 mph 94 % 1.0 in
19:07 15.1 °F 14.1 °F 1020.5 in WNW 6.4 mph 11.3 mph 94 % 0.5 in
19:12 15.2 °F 14.2 °F 1020.5 in West 6.4 mph 14.5 mph 94 % 0.5 in
19:17 15.2 °F 14.2 °F 1020.5 in NNW 6.4 mph 14.5 mph 94 % 0.3 in
19:22 15.2 °F 14.2 °F 1020.5 in NW 3.2 mph 14.5 mph 94 % 0.3 in
19:32 15.2 °F 14.2 °F 1020.5 in WNW 3.2 mph 11.3 mph 94 % 0.0 in
19:37 15.1 °F 14.1 °F 1020.5 in NNW 4.8 mph 11.3 mph 94 % 0.0 in
19:42 15.1 °F 14.1 °F 1020.9 in WNW 3.2 mph 12.9 mph 94 % 0.0 in
19:47 15.2 °F 14.2 °F 1020.9 in WNW 8.0 mph 12.9 mph 94 % 0.0 in
19:52 15.2 °F 14.2 °F 1020.9 in WNW 4.8 mph 12.9 mph 94 % 0.0 in
19:57 15.1 °F 14.1 °F 1020.9 in NW 4.8 mph 11.3 mph 94 % 0.0 in
20:02 15.1 °F 14.1 °F 1020.9 in NW 3.2 mph 14.5 mph 94 % 0.0 in
20:12 15.1 °F 14.1 °F 1020.9 in WNW 1.6 mph 11.3 mph 94 % 0.0 in
20:22 15.1 °F 14.1 °F 1020.9 in NW 3.2 mph 6.4 mph 94 % 0.0 in
20:32 15.1 °F 14.1 °F 1020.9 in WNW 3.2 mph 11.3 mph 94 % 0.0 in
20:37 15.1 °F 14.1 °F 1020.9 in NW 3.2 mph 11.3 mph 94 % 0.0 in
20:42 15.1 °F 14.1 °F 1021.2 in WNW 3.2 mph 9.7 mph 94 % 0.0 in
20:47 15.0 °F 14.0 °F 1021.2 in NNW 3.2 mph 8.0 mph 94 % 0.0 in
20:52 15.0 °F 14.0 °F 1021.2 in NW 3.2 mph 6.4 mph 94 % 0.0 in
20:57 14.9 °F 13.9 °F 1021.2 in WNW 1.6 mph 4.8 mph 94 % 0.0 in
21:02 14.9 °F 13.9 °F 1021.2 in West 4.8 mph 6.4 mph 94 % 0.0 in
21:12 14.9 °F 13.9 °F 1021.2 in WSW 1.6 mph 6.4 mph 94 % 0.0 in
21:22 14.9 °F 13.9 °F 1021.2 in Calm   9.7 mph 94 % 0.0 in
21:32 14.9 °F 13.9 °F 1021.6 in WNW 1.6 mph 9.7 mph 94 % 0.0 in
21:37 14.9 °F 13.9 °F 1021.6 in Calm   6.4 mph 94 % 0.0 in
21:42 14.8 °F 13.8 °F 1021.6 in Calm   4.8 mph 94 % 0.0 in
21:52 14.8 °F 13.8 °F 1021.6 in West 4.8 mph 6.4 mph 94 % 0.0 in
21:57 14.8 °F 13.8 °F 1021.6 in West 3.2 mph 8.0 mph 94 % 0.0 in
22:02 14.8 °F 13.8 °F 1021.6 in Calm   8.0 mph 94 % 0.0 in
22:12 14.9 °F 13.9 °F 1021.6 in Calm   6.4 mph 94 % 0.0 in
22:22 14.8 °F 13.7 °F 1021.9 in Calm   3.2 mph 93 % 0.0 in
22:32 14.8 °F 13.8 °F 1021.9 in West 1.6 mph 4.8 mph 94 % 0.0 in
22:42 14.9 °F 13.9 °F 1022.2 in Calm   9.7 mph 94 % 0.0 in
22:47 14.9 °F 13.9 °F 1022.2 in NW 3.2 mph 9.7 mph 94 % 0.0 in
22:52 14.9 °F 13.9 °F 1022.2 in Calm   9.7 mph 94 % 0.0 in
22:57 14.9 °F 13.9 °F 1022.2 in Calm   6.4 mph 94 % 0.0 in
23:02 15.0 °F 14.0 °F 1022.2 in West 1.6 mph 4.8 mph 94 % 0.0 in
23:12 15.0 °F 14.0 °F 1022.2 in West 3.2 mph 6.4 mph 94 % 0.0 in
23:17 15.1 °F 14.1 °F 1022.2 in West 3.2 mph 6.4 mph 94 % 0.0 in
23:22 15.1 °F 14.3 °F 1022.6 in West 1.6 mph 6.4 mph 95 % 0.0 in
23:27 15.1 °F 14.3 °F 1022.6 in WNW 4.8 mph 8.0 mph 95 % 0.0 in
23:32 15.2 °F 14.4 °F 1022.2 in West 3.2 mph 8.0 mph 95 % 0.0 in
23:37 15.2 °F 14.4 °F 1022.6 in Calm   8.0 mph 95 % 0.0 in
23:42 15.2 °F 14.2 °F 1022.6 in Calm   6.4 mph 94 % 0.0 in
23:47 15.1 °F 14.1 °F 1022.6 in SW 1.6 mph 6.4 mph 94 % 0.0 in
23:52 15.1 °F 14.1 °F 1022.6 in Calm   6.4 mph 94 % 0.0 in
23:57 14.9 °F 13.9 °F 1022.6 in ESE 1.6 mph 3.2 mph 94 % 0.0 in
Meteo18
Compliments of Weather Underground - 4 mb

Script developed by  Jim McMurry - jmcmurry@mwt.net Adapted for the template by  Wim van der Kuil - Leuven-Template.eu

You find our weather info also at:

European Weather Network

Weather Underground

Equipment we use:

Weather-station
Davis Vue

Weather-program
Meteobridge

Weather-server
Raspberry PI 2 B+

Provider
1 and 1

Davis Vue

Meteobridge

Raspberry PI 2 B+

1 and 1